User: anonymous   Login
Location: Unspecified
(0.0000°N, 0.0000°E)
Time: 19:42:26
(UTC+00:00)
Language:

Hubble Space Telescope - Orbit

View from above orbital plane
View from above orbital plane
View from above satellite
View from above satellite

Ground track
Ground track

The orbit data is extracted from the following two-line orbital elements,

1 20580U 90037B   20099.34612344  .00000439  00000-0  15732-4 0  9999
2 20580  28.4699  63.3519 0002885  60.3532  73.5841 15.09365572445457
Epoch (UTC): 08 April 2020 08:18:25
Eccentricity: 0.0002885
inclination: 28.4699°
perigee height: 536 km
apogee height: 540 km
right ascension of ascending node: 63.3519°
argument of perigee: 60.3532°
revolutions per day: 15.09365572
mean anomaly at epoch: 73.5841°
orbit number at epoch: 44545

The dashed part of the orbit path shows where the satellite is in the earth's shadow,  

DLR